SCP
0 0 0 0 0 1 1 1 1 1 1 1 1 1 1 0 0 0 0 0 0 0 0 0 0 0 0 0 0 0 0 0 0 0 0 0 0 0 0 0 0 0 0
0 0 0 0 0 0 0 0 0 0 1 1 1 1 1 1 1 0 0 0 0 0 0 0 0 0 0 0 0 0 0 0 0 0 0 0 0 0 0 0 0 0 0
0 0 0 0 0 0 0 -0 -0 0 0 1 1 1 1 1 1 0 1 1 0 0 0 0 0 0 0 0 0 0 0 0 0 0 0 0 0 0 0 0 0 0 0
0 0 0 0 0 0 0 -0 0 0 0 0 0 1 1 0 1 0 1 1 0 0 0 0 0 0 0 0 0 0 0 0 0 0 0 0 0 0 0 0 0 0 0
0 0 0 -0 -0 -0 0 0 0 0 0 0 0 0 0 1 1 1 1 1 0 0 0 0 0 0 0 0 0 0 0 0 0 0 0 0 0 0 0 0 0 0 0
0 0 0 0 -0 -0 0 0 -0 -0 0 0 0 0 0 0 0 0 1 1 0 0 0 0 0 0 0 0 0 0 0 0 0 0 0 0 0 0 0 0 0 0 0
0 0 -0 -0 0 -0 -0 -0 0 0 0 0 0 -0 0 0 0 0 0 1 0 0 0 0 0 0 0 0 0 0 0 0 0 0 0 0 0 0 0 0 0 0 0
0 -0 0 -0 -0 0 0 0 0 0 0 0 0 0 0 0 0 0 0 0 0 0 0 0 0 0 0 0 0 0 0 0 0 0 0 0 0 0 0 0 0 0 0
0 0 0 0 0 -0 -0 -0 0 0 0 0 0 0 0 0 0 0 0 0 0 0 0 0 0 0 0 0 0 0 0 0 0 0 0 0 0 0 0 0 0 0 0
-0 -0 0 0 0 0 0 0 -0 0 0 0 0 0 0 0 0 0 0 0 0 0 0 0 0 0 0 0 0 0 0 0 0 0 0 0 0 0 0 0 0 0 0
0 0 0 0 0 0 0 0 -0 -0 0 0 0 0 0 0 0 0 0 0 0 0 0 0 0 0 0 0 0 0 0 0 0 0 0 0 0 0 0 0 0 0 0
0 0 0 0 0 0 0 0 0 0 0 0 0 0 0 0 0 0 0 0 0 0 0 0 0 0 0 0 0 0 0 0 0 0 0 0 0 0 0 0 0 0 0
0 0 0 0 0 0 0 0 0 0 0 0 0 0 0 0 0 0 0 0 0 0 0 0 0 0 0 0 0 0 0 0 0 0 0 0 0 0 0 0 0 0 0
0 0 0 0 0 0 0 0 0 0 0 0 0 0 0 0 0 0 0 0 0 0 0 0 0 0 0 0 0 0 0 0 0 0 0 0 0 0 0 0 0 0 0
0 0 0 0 0 0 0 0 0 0 0 0 0 0 0 0 0 0 0 0 0 0 0 0 0 0 0 0 0 0 0 0 0 0 0 0 0 0 0 0 0 0 0
0 0 0 0 0 0 0 0 0 0 0 0 0 0 0 0 0 0 0 0 0 0 0 0 0 0 0 0 0 0 0 0 0 0 0 0 0 0 0 0 0 0 0
0 0 0 0 0 0 0 0 0 0 0 0 0 0 0 0 0 0 0 0 0 0 0 0 0 0 0 0 0 0 0 0 0 0 0 0 0 0 0 0 0 0 0
0 0 0 0 0 0 0 0 0 0 0 0 0 0 0 0 0 0 0 0 0 0 0 0 0 0 0 0 0 0 0 0 0 0 0 0 0 0 0 0 0 0 0
0 0 0 0 0 0 0 0 0 0 0 0 0 0 0 0 0 0 0 0 0 0 0 0 0 0 0 0 0 0 0 0 0 0 0 0 0 0 0 0 0 0 0
0 0 0 0 0 0 0 0 0 0 0 0 0 0 0 0 0 0 0 0 0 0 0 0 0 0 0 0 0 0 0 0 0 0 0 0 0 0 0 0 0 0 0
0 0 0 0 0 0 0 0 0 0 0 0 0 0 0 0 0 0 0 0 0 0 0 0 0 0 0 0 0 0 0 0 0 0 0 0 0 0 0 0 0 0 0
0 0 0 0 0 0 0 0 0 0 0 0 0 0 0 0 0 0 0 0 0 0 0 0 0 0 0 0 0 0 0 0 0 0 0 0 0 0 0 0 0 0 0
0 0 0 0 0 0 0 0 0 0 0 0 0 0 0 0 0 0 0 0 0 0 0 0 0 0 0 0 0 0 0 0 0 0 0 0 0 0 0 0 0 0 0
0 0 0 0 0 0 0 0 0 0 0 0 0 0 0 0 0 0 0 0 0 0 0 0 0 0 0 0 0 0 0 0 -0 -0 0 0 0 0 0 0 0 0 0
0 0 0 0 0 0 0 0 0 0 0 0 0 0 0 0 0 0 0 0 0 0 0 0 0 0 0 0 0 0 0 0 0 -0 0 -0 0 0 0 0 0 0 0
0 0 0 0 0 0 0 0 0 0 0 0 0 0 0 0 0 0 0 0 0 0 0 0 0 0 0 0 0 0 0 0 0 0 0 0 -0 0 0 0 0 0 0
Wind_Speed_500mb
44 58 59 69 63 57 59 56 52 65 78 77 74 69 66 62 56 53 54 53 54 56 54 54 55 51 48 47 47 44 41 40 45 45 47 34 27 22 22 26 26 31 36
48 37 46 62 77 71 60 44 57 57 79 80 79 75 64 60 55 50 49 48 47 50 49 48 47 48 49 47 43 38 33 29 31 36 35 27 23 27 25 24 26 24 26
27 22 31 46 54 45 45 81 76 88 91 91 82 81 67 61 59 54 53 50 48 46 48 47 42 43 43 43 40 37 32 28 27 29 30 27 24 24 23 22 21 21 23
46 37 36 36 30 20 15 6 80 37 99 92 78 79 75 64 61 55 53 51 50 49 48 44 39 39 39 34 37 36 35 32 32 29 28 28 28 28 26 24 25 26 27
57 49 30 46 33 36 46 41 49 99 90 85 66 63 59 54 55 57 48 49 45 45 45 41 39 37 36 34 33 33 35 37 37 32 28 27 26 31 31 27 28 28 28
43 47 48 40 42 48 37 21 39 58 56 50 50 53 67 61 50 63 49 44 46 40 39 41 39 36 39 39 37 36 37 37 42 40 33 30 28 28 28 28 30 28 33
36 25 20 12 24 34 46 49 50 54 49 40 43 34 32 36 39 53 66 48 46 47 42 42 42 40 39 39 37 40 43 42 43 41 43 36 30 24 26 30 30 28 29
13 11 7 8 14 20 20 21 20 25 26 31 41 40 37 31 37 49 36 45 58 54 44 51 49 46 49 47 42 42 40 42 43 47 46 40 37 31 33 31 29 30 33
20 19 19 11 7 7 8 4 9 11 17 25 24 22 30 29 30 43 41 46 44 46 44 50 48 50 51 49 46 48 46 46 41 43 43 40 41 42 42 41 38 40 45
18 19 15 16 15 14 10 13 12 11 17 12 10 12 16 21 23 39 41 39 34 38 50 56 43 43 45 50 52 53 55 52 50 47 49 44 40 42 46 51 49 44 47
25 22 21 19 16 17 14 3 6 10 4 6 3 2 7 14 20 32 36 36 37 40 43 51 62 50 45 45 51 51 49 50 53 49 51 50 49 51 53 50 53 50 50
19 15 21 23 22 17 10 8 6 3 8 9 11 12 9 10 21 31 36 36 44 45 33 32 40 71 77 58 61 51 48 61 64 63 53 57 56 58 61 57 56 55 53
9 7 10 13 14 18 17 13 15 13 9 11 9 8 6 7 10 14 14 25 38 46 56 52 54 57 58 61 60 50 48 60 63 67 75 84 71 58 53 58 56 57 59
8 8 5 5 4 6 10 13 18 19 21 22 20 16 10 7 5 1 3 10 15 20 27 33 34 34 38 49 64 73 81 79 78 79 84 81 74 74 73 64 65 59 63
11 11 8 5 1 4 6 6 3 9 14 17 18 19 17 12 9 9 7 7 12 18 23 31 35 39 42 47 56 62 62 64 64 66 68 65 63 65 72 71 69 68 68
5 8 7 7 8 7 8 5 5 4 6 11 12 11 15 14 15 17 19 22 23 25 25 23 25 30 37 40 41 46 51 62 70 63 60 59 58 59 58 55 58 59 60
7 11 11 10 13 14 10 4 8 10 5 4 6 10 13 18 20 24 28 27 27 25 26 27 28 30 32 34 38 42 45 44 51 61 68 63 58 56 58 57 59 58 59
8 11 14 12 13 16 19 19 7 11 14 16 16 14 14 18 21 25 31 31 31 30 29 29 33 35 37 40 41 42 42 40 41 44 53 59 66 69 69 69 67 70 72
6 7 6 8 12 14 13 16 19 19 14 11 13 12 14 22 26 32 33 34 35 32 27 25 27 30 33 38 41 39 40 40 39 42 44 47 54 56 62 69 73 76 73
5 5 9 12 10 14 17 18 16 12 20 19 19 21 22 25 29 30 32 36 34 31 25 21 20 26 31 31 37 35 34 38 42 43 47 46 48 54 61 63 66 68 70
6 10 14 13 10 15 18 23 23 19 19 19 19 20 22 25 28 31 33 32 28 25 20 18 21 22 26 24 27 35 40 40 37 40 47 50 55 60 59 60 63 64 66
15 15 17 21 23 26 27 29 27 23 20 18 20 22 28 27 24 23 23 27 31 23 23 22 21 20 18 24 27 28 27 35 38 35 32 36 50 52 57 66 64 65 72
15 20 26 32 36 36 36 34 34 32 29 26 28 29 26 24 23 25 28 31 35 33 30 28 27 23 20 20 23 26 31 35 37 41 41 36 34 33 46 51 57 60 66
22 27 32 36 41 45 43 41 39 41 41 39 38 36 37 32 31 31 34 35 35 36 36 36 34 34 29 30 30 29 33 36 36 36 28 32 36 38 35 32 42 53 62
35 40 42 45 45 46 46 42 39 42 47 41 43 48 47 45 42 37 35 38 37 35 39 38 32 36 35 34 33 34 32 32 28 30 34 34 29 25 23 15 26 27 35
38 38 38 38 38 40 41 41 42 45 44 42 42 45 47 48 48 48 40 36 34 34 32 27 32 39 40 41 38 35 33 33 25 23 26 27 30 20 23 26 22 24 34
Wind_Direction_500mb
261 258 251 246 237 229 235 238 260 273 262 257 247 242 240 242 241 243 246 248 253 249 247 247 246 250 253 255 258 260 260 259 265 273 283 292 276 258 261 265 259 261 263
263 258 255 236 242 237 243 251 254 249 263 253 249 240 238 238 240 244 242 244 246 247 246 245 246 248 250 250 250 252 254 255 264 276 284 283 272 265 262 262 264 267 265
214 212 223 226 222 226 258 264 263 252 262 248 238 236 237 236 238 240 240 247 250 251 250 246 245 247 244 242 246 246 252 254 261 275 281 275 267 268 267 264 261 270 275
202 215 213 217 216 192 209 254 226 229 249 233 235 235 235 237 235 237 239 245 244 250 247 237 241 244 238 242 245 247 252 255 254 258 268 272 269 267 267 268 266 271 276
200 200 192 212 219 221 222 232 205 220 225 228 236 235 235 228 230 232 237 246 239 247 236 230 236 240 240 243 244 246 249 251 255 254 254 266 265 266 269 272 275 280 272
209 214 208 213 225 216 220 204 210 222 220 228 226 233 229 234 238 235 220 230 236 237 240 238 239 238 238 240 240 243 248 248 251 254 255 261 267 273 268 265 262 262 268
174 170 206 220 199 216 220 224 226 225 220 230 239 235 238 246 234 228 207 217 238 245 239 242 241 237 238 244 246 247 249 249 250 253 260 261 266 272 278 268 259 257 262
78 109 151 181 195 208 214 223 223 222 233 236 228 246 258 259 241 210 207 230 233 237 250 243 243 244 244 246 247 249 250 250 251 254 256 262 264 266 264 268 265 263 257
65 77 83 76 43 343 317 315 263 247 241 247 242 236 229 234 239 209 228 240 249 246 245 251 244 246 250 247 249 250 249 250 249 252 255 256 255 256 257 258 253 250 252
37 32 48 53 48 37 57 55 89 111 120 133 168 227 227 235 231 215 226 244 235 241 239 245 258 257 258 258 256 254 250 257 255 255 252 253 254 254 258 258 258 255 256
42 35 43 42 43 44 45 66 106 156 115 89 128 209 214 231 216 214 224 238 239 238 251 251 254 257 268 277 263 260 255 261 265 260 259 253 249 248 253 256 253 255 258
23 28 47 49 54 59 59 75 95 156 222 246 251 246 221 194 229 241 244 259 250 245 248 249 256 255 256 273 264 261 265 262 262 266 265 264 257 253 251 250 254 255 258
22 39 38 38 57 63 64 77 95 95 91 85 81 97 143 177 213 234 248 240 248 249 248 265 267 259 254 263 267 272 270 268 269 267 268 269 268 265 260 255 252 254 253
349 341 359 353 31 30 44 66 79 74 68 66 64 65 62 97 122 249 239 243 248 247 251 261 266 260 256 258 260 263 266 266 268 270 271 275 274 266 264 259 254 249 250
55 33 28 62 47 12 23 20 46 55 62 73 64 72 73 60 58 42 19 340 313 296 287 281 277 274 271 268 267 263 261 263 263 261 266 270 271 270 261 258 252 252 248
75 46 54 44 9 338 307 312 219 172 74 55 49 36 41 32 13 356 349 349 348 346 337 324 309 294 287 286 286 281 274 268 264 264 266 265 268 270 268 267 266 259 257
55 45 32 57 55 42 27 27 206 216 250 317 332 342 345 347 345 344 338 336 333 332 330 332 329 324 322 317 305 295 292 290 279 265 259 260 262 265 268 263 264 263 257
77 74 87 95 67 50 41 38 0 265 263 282 285 280 305 312 323 321 322 326 328 324 323 329 334 337 337 330 321 313 297 290 292 285 271 265 261 258 260 259 259 257 260
108 88 69 30 5 360 9 17 14 9 359 294 266 275 286 294 302 309 312 317 320 318 318 325 334 339 338 336 329 317 312 300 291 287 281 275 267 266 265 261 260 261 259
77 43 356 351 1 19 23 21 11 7 3 341 323 303 298 294 295 295 297 303 302 300 304 316 324 328 324 324 339 341 323 309 300 295 289 280 273 264 264 264 263 262 262
352 360 359 354 330 327 325 328 327 321 326 350 357 346 322 310 301 296 299 305 304 295 295 300 308 329 331 339 338 341 344 344 326 300 285 280 279 275 271 270 267 263 260
342 335 337 335 325 313 308 314 323 314 306 302 314 328 335 326 312 311 311 317 317 297 300 289 293 314 335 345 343 344 339 338 341 352 343 304 280 276 270 269 268 263 260
345 331 324 321 317 308 297 294 299 303 292 289 291 297 310 324 329 329 324 315 309 302 293 280 273 280 294 313 327 341 342 337 327 324 328 338 348 305 283 271 270 271 263
317 314 313 317 324 323 307 287 280 290 289 282 284 292 292 291 298 306 314 315 307 300 288 281 270 266 283 288 294 304 317 329 340 331 326 332 331 329 342 330 284 269 269
321 319 317 317 318 324 325 309 296 290 294 273 279 283 286 284 279 287 299 307 303 294 302 273 264 267 273 281 287 288 295 306 320 336 334 321 318 332 349 353 357 327 278
320 317 313 314 316 318 319 321 318 314 296 279 278 282 280 276 276 272 276 288 291 293 295 287 260 264 277 281 283 282 286 290 291 307 320 325 344 342 328 334 4 51 52
Wind_Speed_850mb
44 58 59 69 63 57 59 56 52 65 78 77 74 69 66 62 56 53 54 53 54 56 54 54 55 51 48 47 47 44 41 40 45 45 47 34 27 22 22 26 26 31 36
48 37 46 62 77 71 60 44 57 57 79 80 79 75 64 60 55 50 49 48 47 50 49 48 47 48 49 47 43 38 33 29 31 36 35 27 23 27 25 24 26 24 26
27 22 31 46 54 45 45 81 76 88 91 91 82 81 67 61 59 54 53 50 48 46 48 47 42 43 43 43 40 37 32 28 27 29 30 27 24 24 23 22 21 21 23
46 37 36 36 30 20 15 6 80 37 99 92 78 79 75 64 61 55 53 51 50 49 48 44 39 39 39 34 37 36 35 32 32 29 28 28 28 28 26 24 25 26 27
57 49 30 46 33 36 46 41 49 99 90 85 66 63 59 54 55 57 48 49 45 45 45 41 39 37 36 34 33 33 35 37 37 32 28 27 26 31 31 27 28 28 28
43 47 48 40 42 48 37 21 39 58 56 50 50 53 67 61 50 63 49 44 46 40 39 41 39 36 39 39 37 36 37 37 42 40 33 30 28 28 28 28 30 28 33
36 25 20 12 24 34 46 49 50 54 49 40 43 34 32 36 39 53 66 48 46 47 42 42 42 40 39 39 37 40 43 42 43 41 43 36 30 24 26 30 30 28 29
13 11 7 8 14 20 20 21 20 25 26 31 41 40 37 31 37 49 36 45 58 54 44 51 49 46 49 47 42 42 40 42 43 47 46 40 37 31 33 31 29 30 33
20 19 19 11 7 7 8 4 9 11 17 25 24 22 30 29 30 43 41 46 44 46 44 50 48 50 51 49 46 48 46 46 41 43 43 40 41 42 42 41 38 40 45
18 19 15 16 15 14 10 13 12 11 17 12 10 12 16 21 23 39 41 39 34 38 50 56 43 43 45 50 52 53 55 52 50 47 49 44 40 42 46 51 49 44 47
25 22 21 19 16 17 14 3 6 10 4 6 3 2 7 14 20 32 36 36 37 40 43 51 62 50 45 45 51 51 49 50 53 49 51 50 49 51 53 50 53 50 50
19 15 21 23 22 17 10 8 6 3 8 9 11 12 9 10 21 31 36 36 44 45 33 32 40 71 77 58 61 51 48 61 64 63 53 57 56 58 61 57 56 55 53
9 7 10 13 14 18 17 13 15 13 9 11 9 8 6 7 10 14 14 25 38 46 56 52 54 57 58 61 60 50 48 60 63 67 75 84 71 58 53 58 56 57 59
8 8 5 5 4 6 10 13 18 19 21 22 20 16 10 7 5 1 3 10 15 20 27 33 34 34 38 49 64 73 81 79 78 79 84 81 74 74 73 64 65 59 63
11 11 8 5 1 4 6 6 3 9 14 17 18 19 17 12 9 9 7 7 12 18 23 31 35 39 42 47 56 62 62 64 64 66 68 65 63 65 72 71 69 68 68
5 8 7 7 8 7 8 5 5 4 6 11 12 11 15 14 15 17 19 22 23 25 25 23 25 30 37 40 41 46 51 62 70 63 60 59 58 59 58 55 58 59 60
7 11 11 10 13 14 10 4 8 10 5 4 6 10 13 18 20 24 28 27 27 25 26 27 28 30 32 34 38 42 45 44 51 61 68 63 58 56 58 57 59 58 59
8 11 14 12 13 16 19 19 7 11 14 16 16 14 14 18 21 25 31 31 31 30 29 29 33 35 37 40 41 42 42 40 41 44 53 59 66 69 69 69 67 70 72
6 7 6 8 12 14 13 16 19 19 14 11 13 12 14 22 26 32 33 34 35 32 27 25 27 30 33 38 41 39 40 40 39 42 44 47 54 56 62 69 73 76 73
5 5 9 12 10 14 17 18 16 12 20 19 19 21 22 25 29 30 32 36 34 31 25 21 20 26 31 31 37 35 34 38 42 43 47 46 48 54 61 63 66 68 70
6 10 14 13 10 15 18 23 23 19 19 19 19 20 22 25 28 31 33 32 28 25 20 18 21 22 26 24 27 35 40 40 37 40 47 50 55 60 59 60 63 64 66
15 15 17 21 23 26 27 29 27 23 20 18 20 22 28 27 24 23 23 27 31 23 23 22 21 20 18 24 27 28 27 35 38 35 32 36 50 52 57 66 64 65 72
15 20 26 32 36 36 36 34 34 32 29 26 28 29 26 24 23 25 28 31 35 33 30 28 27 23 20 20 23 26 31 35 37 41 41 36 34 33 46 51 57 60 66
22 27 32 36 41 45 43 41 39 41 41 39 38 36 37 32 31 31 34 35 35 36 36 36 34 34 29 30 30 29 33 36 36 36 28 32 36 38 35 32 42 53 62
35 40 42 45 45 46 46 42 39 42 47 41 43 48 47 45 42 37 35 38 37 35 39 38 32 36 35 34 33 34 32 32 28 30 34 34 29 25 23 15 26 27 35
38 38 38 38 38 40 41 41 42 45 44 42 42 45 47 48 48 48 40 36 34 34 32 27 32 39 40 41 38 35 33 33 25 23 26 27 30 20 23 26 22 24 34
Wind_Direction_850mb
261 258 251 246 237 229 235 238 260 273 262 257 247 242 240 242 241 243 246 248 253 249 247 247 246 250 253 255 258 260 260 259 265 273 283 292 276 258 261 265 259 261 263
263 258 255 236 242 237 243 251 254 249 263 253 249 240 238 238 240 244 242 244 246 247 246 245 246 248 250 250 250 252 254 255 264 276 284 283 272 265 262 262 264 267 265
214 212 223 226 222 226 258 264 263 252 262 248 238 236 237 236 238 240 240 247 250 251 250 246 245 247 244 242 246 246 252 254 261 275 281 275 267 268 267 264 261 270 275
202 215 213 217 216 192 209 254 226 229 249 233 235 235 235 237 235 237 239 245 244 250 247 237 241 244 238 242 245 247 252 255 254 258 268 272 269 267 267 268 266 271 276
200 200 192 212 219 221 222 232 205 220 225 228 236 235 235 228 230 232 237 246 239 247 236 230 236 240 240 243 244 246 249 251 255 254 254 266 265 266 269 272 275 280 272
209 214 208 213 225 216 220 204 210 222 220 228 226 233 229 234 238 235 220 230 236 237 240 238 239 238 238 240 240 243 248 248 251 254 255 261 267 273 268 265 262 262 268
174 170 206 220 199 216 220 224 226 225 220 230 239 235 238 246 234 228 207 217 238 245 239 242 241 237 238 244 246 247 249 249 250 253 260 261 266 272 278 268 259 257 262
78 109 151 181 195 208 214 223 223 222 233 236 228 246 258 259 241 210 207 230 233 237 250 243 243 244 244 246 247 249 250 250 251 254 256 262 264 266 264 268 265 263 257
65 77 83 76 43 343 317 315 263 247 241 247 242 236 229 234 239 209 228 240 249 246 245 251 244 246 250 247 249 250 249 250 249 252 255 256 255 256 257 258 253 250 252
37 32 48 53 48 37 57 55 89 111 120 133 168 227 227 235 231 215 226 244 235 241 239 245 258 257 258 258 256 254 250 257 255 255 252 253 254 254 258 258 258 255 256
42 35 43 42 43 44 45 66 106 156 115 89 128 209 214 231 216 214 224 238 239 238 251 251 254 257 268 277 263 260 255 261 265 260 259 253 249 248 253 256 253 255 258
23 28 47 49 54 59 59 75 95 156 222 246 251 246 221 194 229 241 244 259 250 245 248 249 256 255 256 273 264 261 265 262 262 266 265 264 257 253 251 250 254 255 258
22 39 38 38 57 63 64 77 95 95 91 85 81 97 143 177 213 234 248 240 248 249 248 265 267 259 254 263 267 272 270 268 269 267 268 269 268 265 260 255 252 254 253
349 341 359 353 31 30 44 66 79 74 68 66 64 65 62 97 122 249 239 243 248 247 251 261 266 260 256 258 260 263 266 266 268 270 271 275 274 266 264 259 254 249 250
55 33 28 62 47 12 23 20 46 55 62 73 64 72 73 60 58 42 19 340 313 296 287 281 277 274 271 268 267 263 261 263 263 261 266 270 271 270 261 258 252 252 248
75 46 54 44 9 338 307 312 219 172 74 55 49 36 41 32 13 356 349 349 348 346 337 324 309 294 287 286 286 281 274 268 264 264 266 265 268 270 268 267 266 259 257
55 45 32 57 55 42 27 27 206 216 250 317 332 342 345 347 345 344 338 336 333 332 330 332 329 324 322 317 305 295 292 290 279 265 259 260 262 265 268 263 264 263 257
77 74 87 95 67 50 41 38 0 265 263 282 285 280 305 312 323 321 322 326 328 324 323 329 334 337 337 330 321 313 297 290 292 285 271 265 261 258 260 259 259 257 260
108 88 69 30 5 360 9 17 14 9 359 294 266 275 286 294 302 309 312 317 320 318 318 325 334 339 338 336 329 317 312 300 291 287 281 275 267 266 265 261 260 261 259
77 43 356 351 1 19 23 21 11 7 3 341 323 303 298 294 295 295 297 303 302 300 304 316 324 328 324 324 339 341 323 309 300 295 289 280 273 264 264 264 263 262 262
352 360 359 354 330 327 325 328 327 321 326 350 357 346 322 310 301 296 299 305 304 295 295 300 308 329 331 339 338 341 344 344 326 300 285 280 279 275 271 270 267 263 260
342 335 337 335 325 313 308 314 323 314 306 302 314 328 335 326 312 311 311 317 317 297 300 289 293 314 335 345 343 344 339 338 341 352 343 304 280 276 270 269 268 263 260
345 331 324 321 317 308 297 294 299 303 292 289 291 297 310 324 329 329 324 315 309 302 293 280 273 280 294 313 327 341 342 337 327 324 328 338 348 305 283 271 270 271 263
317 314 313 317 324 323 307 287 280 290 289 282 284 292 292 291 298 306 314 315 307 300 288 281 270 266 283 288 294 304 317 329 340 331 326 332 331 329 342 330 284 269 269
321 319 317 317 318 324 325 309 296 290 294 273 279 283 286 284 279 287 299 307 303 294 302 273 264 267 273 281 287 288 295 306 320 336 334 321 318 332 349 353 357 327 278
320 317 313 314 316 318 319 321 318 314 296 279 278 282 280 276 276 272 276 288 291 293 295 287 260 264 277 281 283 282 286 290 291 307 320 325 344 342 328 334 4 51 52